Vorticity
8 8 8 8 8 7 7 7 8 8 9 9 10 11 12 13 13 14 14 14 13 13 12 11 11 11 11 11 11 11 11 11 11 12 12 12 11 11 11 11 11 10 10 9 9 8 8 7 7 7 7 7 7 7 7 7 7 7 7 8 8 8 9 8 8 9 9 9 9
8 8 8 8 8 7 7 7 8 9 10 11 12 13 13 14 14 14 13 13 13 12 11 11 10 10 10 11 11 11 11 11 11 11 11 11 11 10 10 10 9 9 8 8 8 7 7 7 6 6 6 7 7 7 7 8 9 9 9 9 8 8 8 8 9 9 10 10 9
8 8 8 8 8 8 8 8 9 10 11 12 13 14 14 14 14 14 13 12 11 11 11 10 10 10 10 10 11 11 11 11 10 10 10 10 10 9 9 9 8 8 8 7 7 7 7 7 7 7 7 7 8 8 8 9 9 9 9 10 10 9 9 9 9 9 9 9 9
8 8 8 8 8 8 9 9 10 12 13 13 14 14 15 14 14 13 12 11 11 11 10 10 10 10 10 10 10 11 11 10 10 10 9 9 9 9 9 8 8 8 8 8 8 8 8 9 9 9 9 9 9 9 9 9 9 9 9 9 9 9 9 9 9 9 9 9 9
8 8 8 8 8 9 10 11 12 13 13 14 14 14 14 13 13 12 11 11 11 10 10 10 10 10 10 10 10 10 10 10 10 10 9 9 9 9 9 9 9 9 9 9 9 9 9 10 10 10 10 10 10 10 10 10 9 9 9 9 9 9 9 8 8 8 8 8 8
8 8 8 9 9 10 11 12 13 13 14 14 14 14 13 13 12 11 11 11 10 10 10 10 10 10 11 11 11 10 10 10 10 9 9 9 9 9 9 10 10 10 10 10 10 10 10 10 10 10 10 10 10 10 10 9 9 9 9 9 9 8 8 8 8 8 8 8 8
8 8 9 9 10 11 12 13 14 14 14 14 14 13 12 12 11 11 10 10 10 10 10 11 11 11 11 11 10 10 10 10 10 9 9 9 9 9 9 9 10 10 10 10 10 10 10 9 9 9 9 9 9 9 9 9 9 9 8 8 8 9 9 8 8 8 8 8 8
8 9 9 10 11 12 13 13 14 14 14 14 13 13 12 11 11 10 10 9 10 10 10 11 11 11 10 10 10 9 9 9 9 9 9 9 9 9 9 9 9 9 9 9 9 9 9 9 9 8 8 8 8 8 8 8 8 8 8 8 8 8 9 9 9 8 8 8 8
9 9 10 11 12 13 13 13 14 13 13 13 12 12 11 10 10 9 9 10 10 10 10 10 10 10 9 9 9 9 9 8 8 8 8 8 8 8 8 8 8 8 8 8 8 8 8 8 8 8 8 8 8 8 8 8 8 8 8 8 8 8 8 9 8 8 8 8 8
9 10 11 12 13 13 13 13 13 13 13 12 12 11 10 10 9 9 10 9 9 9 10 10 9 9 9 9 8 8 8 8 8 8 8 8 8 8 8 8 7 7 7 7 7 7 7 7 7 7 7 7 7 8 8 8 8 8 8 8 8 8 8 8 8 8 8 8 8
10 11 12 13 13 13 13 13 13 13 13 12 11 10 9 9 9 9 9 8 9 9 9 8 8 8 8 8 8 8 8 8 8 8 8 8 8 7 7 7 7 7 6 6 6 6 6 6 6 6 6 7 7 7 7 7 8 8 8 8 8 8 8 8 8 8 8 8 8
11 12 12 13 13 13 13 13 13 12 12 11 10 9 8 8 8 8 8 8 8 8 8 8 8 8 8 8 8 8 8 8 8 8 8 8 7 7 7 7 6 6 6 6 6 6 6 6 6 6 6 6 6 7 7 7 7 7 7 7 7 8 7 7 7 8 8 8 8
11 12 12 13 13 13 13 13 13 12 11 9 8 8 7 7 8 8 8 8 8 8 8 8 8 8 8 8 8 8 8 8 8 8 8 8 7 7 7 6 6 6 6 6 5 5 6 6 6 6 6 6 6 6 7 7 7 7 7 7 7 7 7 7 7 7 7 7 8
12 12 13 13 13 13 13 13 12 11 9 8 7 7 7 7 7 7 8 8 8 8 8 8 8 8 8 8 8 8 8 8 8 8 8 8 7 7 7 6 6 6 6 6 6 6 6 6 6 6 6 6 6 6 6 6 6 6 6 6 6 6 7 7 7 7 7 7 8
12 12 13 13 13 13 13 13 11 9 8 7 6 6 6 7 7 7 7 7 7 7 7 7 8 8 8 8 8 8 8 8 8 8 8 8 7 7 7 6 6 6 6 6 6 6 6 6 6 6 6 6 6 6 6 6 6 6 6 6 6 6 7 7 7 7 8 8 8
12 12 13 13 13 13 13 12 10 8 7 6 6 6 6 7 7 7 7 7 7 7 7 7 7 7 8 8 8 8 8 8 8 8 8 8 7 7 7 7 7 6 6 6 6 6 6 6 6 6 6 6 6 6 6 6 6 6 6 7 7 7 7 7 7 7 8 8 8
12 12 13 13 13 13 12 10 8 7 6 5 5 6 6 6 6 6 6 6 6 6 6 7 7 7 7 7 8 8 8 8 8 8 7 7 7 7 7 7 7 7 6 6 6 6 6 6 6 6 6 6 6 6 6 6 6 7 7 7 7 7 7 7 7 7 7 8 8
12 13 13 13 13 12 11 8 7 6 5 5 5 6 6 6 6 6 5 5 5 5 5 6 6 7 7 7 7 7 7 7 7 7 7 7 7 7 7 7 7 7 7 7 7 7 7 7 7 7 7 7 7 7 7 7 7 7 7 7 7 7 7 7 7 7 8 8 8
12 13 13 14 13 11 9 7 6 5 5 5 5 6 6 6 5 5 4 4 5 5 5 5 5 6 6 6 6 6 6 7 7 7 7 7 7 7 7 7 7 7 7 7 7 7 7 7 7 7 7 7 7 7 7 7 7 7 7 7 7 7 7 7 7 7 8 8 8
12 13 13 13 12 10 8 6 5 5 5 5 5 5 5 5 4 4 4 4 4 4 4 4 4 5 5 5 5 5 6 6 6 6 6 6 6 6 6 6 7 7 7 7 7 7 7 7 7 8 8 7 7 7 7 7 7 7 7 7 7 7 7 7 7 7 8 8 8
13 13 13 12 11 9 7 5 5 4 5 5 5 5 4 4 4 4 4 3 3 4 4 4 4 4 4 4 5 5 5 5 6 6 6 6 6 6 6 6 6 7 7 7 7 7 8 8 8 8 8 8 8 8 8 8 7 7 7 7 7 7 7 7 7 7 7 8 8
13 13 13 12 10 8 6 5 4 4 5 5 4 4 4 3 3 3 3 3 3 4 4 4 4 4 4 4 4 5 5 5 5 5 5 6 6 6 6 6 6 7 7 7 8 8 8 8 8 8 8 8 8 8 8 8 8 7 7 7 7 6 6 6 7 7 7 8 8
12 13 12 11 9 7 5 4 4 4 4 4 4 4 3 3 3 3 3 3 3 4 4 4 4 4 4 4 4 4 4 5 5 5 5 5 5 6 6 6 6 7 7 7 8 8 8 8 8 9 9 9 9 8 8 8 8 7 7 7 6 6 6 6 6 7 7 8 8
13 13 12 11 8 6 5 4 4 4 4 4 3 3 3 3 3 3 3 3 4 4 4 4 4 4 4 4 4 4 5 5 5 5 5 5 6 6 6 6 7 7 7 8 8 8 9 9 8 9 9 9 9 9 8 8 8 7 7 6 6 6 6 6 6 7 7 8 9
13 12 12 10 8 6 5 4 4 4 4 3 3 3 3 3 3 3 3 3 4 4 4 4 4 4 4 4 4 5 5 5 5 5 5 5 6 6 6 6 7 7 8 8 8 9 9 9 9 9 9 9 9 9 8 8 8 7 7 7 6 6 6 6 7 7 8 8 9
13 12 11 9 7 5 4 4 4 4 3 3 3 3 2 2 3 3 3 3 4 4 4 4 4 4 4 4 4 5 5 5 5 5 5 5 6 6 6 6 7 7 8 8 9 9 9 9 9 9 9 9 9 9 8 8 8 8 7 7 6 6 6 6 7 7 8 9 9
13 12 11 9 7 5 4 4 4 3 3 3 3 2 2 2 3 3 3 3 3 4 4 4 4 4 4 4 4 5 5 5 5 5 5 6 6 6 6 7 7 8 8 8 9 9 9 9 9 9 9 9 9 9 8 8 8 7 7 7 6 6 7 7 7 7 8 9 9
12 12 10 8 7 5 4 4 3 3 3 3 3 2 2 2 2 3 3 3 3 3 4 4 4 4 4 4 4 5 5 5 5 5 6 6 6 6 6 7 7 8 8 8 8 9 8 8 8 9 9 9 9 9 9 8 7 7 7 6 6 6 7 7 7 7 8 8 9
12 11 10 8 7 5 4 4 4 3 3 3 2 2 2 2 2 3 3 3 3 3 3 4 4 4 4 4 4 4 5 5 5 5 6 6 6 7 7 7 7 8 8 8 8 8 8 8 8 8 9 9 9 9 8 8 7 7 6 6 6 6 7 7 7 8 8 9 9
12 11 10 8 6 5 4 4 3 3 3 2 2 2 2 2 2 3 3 3 3 3 3 3 3 3 4 4 4 4 5 5 5 6 6 6 7 7 7 7 8 8 8 8 8 8 8 8 8 8 9 9 9 9 8 7 7 6 6 6 6 7 7 7 7 8 9 9 10
12 11 10 8 7 5 4 4 3 3 3 2 2 2 2 2 3 3 3 3 3 3 3 2 3 3 3 4 4 4 5 5 5 6 6 7 7 7 7 8 8 8 8 8 8 8 8 8 8 9 9 9 9 8 7 7 6 6 6 6 6 7 7 7 8 8 9 10 11
12 11 10 8 7 5 4 4 3 3 3 2 2 2 2 2 3 3 3 2 2 2 2 2 3 3 3 4 4 5 5 5 6 6 7 7 7 8 8 8 8 8 8 8 8 8 8 8 8 9 9 8 8 7 7 6 6 6 6 6 7 7 7 7 8 9 10 11 11
12 11 10 8 7 5 4 4 3 3 3 2 2 2 2 2 2 2 2 2 2 2 2 2 2 3 3 4 4 5 5 6 6 6 7 7 8 8 8 8 8 8 8 7 8 8 8 8 8 8 8 8 7 7 6 6 6 6 7 7 7 7 7 8 8 9 10 11 12
11 11 10 9 7 6 5 4 3 3 2 2 2 2 2 2 2 3 3 3 2 2 2 2 2 2 3 3 4 5 5 6 6 7 7 8 8 9 9 9 8 8 8 7 8 8 8 8 8 8 7 7 6 6 6 6 7 7 7 7 7 7 8 8 9 10 11 11 12
11 11 10 9 7 6 5 4 3 3 2 2 2 2 2 2 3 3 3 2 2 2 2 2 2 3 3 4 4 5 5 6 7 7 8 8 9 9 9 9 8 8 8 8 8 8 8 8 8 7 7 6 6 6 7 7 7 7 7 7 7 7 8 9 10 10 11 12 12
11 11 10 9 8 6 5 4 3 3 3 2 2 2 2 3 3 3 3 2 2 2 2 2 2 3 4 4 5 6 6 7 7 8 8 9 9 9 9 8 8 8 8 8 8 8 8 8 8 7 6 6 7 7 7 7 7 7 7 7 8 8 8 9 10 10 11 12 13
11 11 10 9 8 7 6 4 4 3 3 3 3 3 3 3 3 3 3 2 2 2 2 2 3 3 4 5 5 6 7 7 8 8 9 9 10 9 9 8 8 8 8 8 8 8 8 8 8 7 6 6 7 7 8 8 8 8 8 8 8 8 9 10 10 11 12 12 13
11 11 10 9 8 7 6 5 4 4 3 3 3 3 3 3 3 3 3 3 3 2 2 3 3 4 4 5 6 6 7 8 8 9 9 10 9 9 8 8 8 8 8 8 8 8 8 8 7 7 6 7 7 7 7 7 8 8 8 8 8 9 9 10 11 12 12 12 12
11 10 10 9 8 7 6 6 5 4 4 3 3 3 3 3 3 3 3 3 3 3 3 3 4 4 5 5 6 7 8 8 9 9 9 9 9 9 8 8 8 8 8 8 8 8 8 7 7 7 7 7 7 7 7 7 7 8 8 8 9 9 10 11 12 12 12 12 11
10 10 10 9 8 8 7 6 6 5 4 4 4 4 4 4 4 4 3 3 3 3 3 3 4 5 5 6 7 7 8 9 9 10 10 9 9 8 8 8 8 8 8 9 8 8 7 7 7 7 7 7 8 8 7 7 7 8 8 9 9 10 10 12 12 12 12 11 10
10 10 10 9 9 8 8 7 6 6 5 5 4 4 4 4 4 4 4 3 3 3 4 4 5 5 6 7 7 8 9 9 10 10 9 9 8 8 8 8 8 8 8 8 8 7 7 7 7 7 7 8 8 8 8 7 8 8 9 9 10 10 11 11 12 12 12 10 9
Height
5790 5789 5788 5787 5787 5786 5785 5784 5783 5782 5781 5780 5779 5778 5777 5776 5775 5774 5773 5772 5771 5770 5769 5768 5767 5767 5765 5764 5763 5762 5761 5760 5759 5757 5756 5755 5754 5753 5752 5751 5749 5748 5747 5746 5744 5743 5742 5740 5739 5737 5736 5735 5733 5732 5731 5729 5727 5726 5724 5723 5722 5720 5719 5717 5715 5713 5712 5710 5707
5789 5788 5787 5786 5785 5784 5783 5782 5782 5781 5779 5778 5777 5776 5775 5774 5773 5772 5771 5770 5770 5769 5768 5767 5766 5765 5764 5763 5762 5761 5759 5758 5757 5756 5755 5754 5753 5752 5750 5749 5748 5747 5745 5744 5743 5741 5740 5739 5737 5736 5734 5733 5732 5730 5729 5727 5726 5724 5722 5721 5720 5718 5717 5714 5712 5711 5709 5707 5705
5787 5786 5785 5784 5784 5783 5782 5781 5780 5779 5778 5777 5776 5775 5774 5773 5772 5771 5770 5769 5768 5767 5766 5765 5764 5763 5762 5761 5760 5759 5758 5757 5756 5754 5753 5752 5751 5750 5749 5748 5747 5745 5744 5742 5741 5740 5738 5737 5736 5734 5732 5731 5730 5728 5727 5725 5724 5722 5721 5719 5717 5716 5714 5712 5710 5708 5706 5704 5702
5785 5785 5784 5783 5782 5782 5781 5780 5778 5777 5777 5775 5774 5773 5772 5771 5770 5769 5768 5767 5767 5766 5765 5764 5763 5762 5761 5760 5759 5757 5757 5755 5754 5753 5752 5751 5750 5748 5747 5746 5745 5743 5742 5741 5739 5738 5737 5735 5734 5732 5731 5729 5728 5726 5725 5723 5722 5720 5718 5717 5715 5713 5711 5709 5707 5705 5703 5702 5700
5784 5783 5782 5782 5781 5780 5779 5778 5777 5776 5775 5774 5773 5772 5771 5770 5769 5768 5767 5766 5765 5764 5763 5762 5761 5760 5759 5758 5757 5756 5755 5754 5752 5751 5750 5749 5748 5747 5746 5744 5743 5742 5741 5739 5737 5736 5735 5733 5732 5731 5729 5727 5726 5724 5723 5721 5719 5717 5716 5714 5712 5710 5708 5707 5705 5703 5701 5699 5697
5782 5782 5781 5780 5779 5778 5777 5776 5775 5774 5773 5772 5771 5770 5769 5768 5767 5767 5766 5765 5764 5763 5762 5761 5760 5759 5757 5757 5755 5754 5753 5752 5751 5750 5748 5747 5746 5745 5744 5743 5742 5740 5739 5737 5736 5735 5733 5732 5730 5729 5727 5726 5724 5722 5721 5719 5717 5715 5713 5712 5710 5708 5706 5704 5702 5700 5698 5696 5694
5781 5780 5779 5778 5777 5777 5775 5774 5773 5772 5772 5771 5770 5769 5768 5767 5766 5765 5764 5763 5762 5762 5760 5759 5758 5757 5756 5755 5754 5753 5752 5751 5749 5748 5747 5746 5745 5743 5742 5741 5740 5739 5737 5736 5735 5733 5732 5730 5729 5727 5725 5724 5722 5720 5718 5717 5715 5713 5711 5709 5707 5706 5704 5702 5700 5698 5696 5693 5691
5779 5778 5777 5777 5776 5775 5774 5773 5772 5771 5770 5769 5768 5767 5767 5766 5765 5764 5763 5762 5761 5760 5759 5758 5757 5756 5755 5754 5752 5751 5750 5749 5748 5747 5746 5744 5743 5742 5741 5739 5738 5737 5736 5734 5733 5731 5730 5728 5727 5725 5723 5722 5720 5718 5716 5714 5712 5711 5709 5707 5705 5703 5702 5699 5697 5695 5693 5691 5689
5777 5777 5776 5775 5774 5773 5772 5771 5770 5769 5769 5768 5767 5766 5765 5764 5763 5762 5762 5761 5760 5758 5757 5757 5755 5754 5753 5752 5751 5750 5749 5748 5747 5745 5744 5743 5742 5740 5739 5738 5737 5735 5734 5732 5731 5729 5728 5726 5724 5723 5721 5719 5717 5716 5714 5712 5710 5709 5707 5705 5703 5701 5699 5697 5695 5692 5691 5688 5686
5776 5775 5774 5773 5772 5771 5770 5770 5769 5768 5767 5766 5766 5765 5764 5763 5762 5761 5760 5759 5758 5757 5756 5755 5754 5753 5752 5751 5750 5748 5747 5746 5745 5744 5743 5742 5740 5739 5737 5736 5735 5733 5732 5730 5729 5727 5726 5724 5722 5721 5719 5717 5716 5714 5712 5710 5708 5707 5705 5703 5701 5699 5697 5695 5692 5690 5688 5686 5684
5774 5773 5772 5772 5771 5770 5769 5768 5767 5766 5766 5765 5764 5763 5762 5762 5761 5760 5759 5758 5757 5756 5755 5754 5753 5752 5750 5749 5748 5747 5746 5745 5743 5742 5741 5740 5739 5737 5736 5735 5733 5732 5730 5728 5727 5725 5724 5722 5721 5719 5717 5716 5714 5712 5710 5708 5707 5705 5703 5701 5699 5697 5694 5692 5690 5688 5686 5683 5681
5772 5772 5771 5770 5769 5768 5767 5767 5766 5765 5764 5763 5762 5762 5761 5760 5759 5758 5757 5757 5756 5755 5753 5752 5751 5750 5749 5748 5747 5746 5744 5743 5742 5741 5740 5738 5737 5736 5734 5733 5731 5730 5728 5727 5725 5723 5722 5720 5719 5717 5715 5714 5712 5710 5708 5706 5704 5702 5701 5698 5697 5694 5692 5690 5688 5685 5683 5681 5678
5771 5770 5769 5768 5767 5766 5766 5765 5764 5763 5763 5762 5761 5761 5760 5759 5758 5757 5756 5755 5754 5753 5752 5751 5750 5749 5748 5747 5746 5744 5743 5742 5741 5739 5738 5737 5735 5734 5732 5731 5730 5728 5727 5725 5723 5722 5720 5718 5717 5715 5713 5712 5710 5708 5706 5704 5702 5700 5698 5696 5694 5692 5690 5687 5685 5682 5680 5678 5675
5769 5768 5767 5766 5766 5765 5764 5763 5763 5762 5761 5761 5760 5759 5758 5757 5757 5756 5755 5754 5753 5752 5751 5750 5749 5748 5747 5745 5744 5743 5742 5740 5739 5738 5737 5735 5734 5732 5731 5729 5728 5726 5725 5723 5722 5720 5718 5717 5715 5713 5711 5710 5708 5706 5704 5702 5700 5698 5696 5693 5691 5689 5687 5685 5682 5680 5677 5675 5672
5767 5766 5765 5765 5764 5763 5762 5762 5761 5760 5760 5759 5758 5758 5757 5756 5755 5754 5753 5753 5752 5751 5750 5749 5747 5746 5745 5744 5743 5741 5740 5739 5737 5736 5735 5733 5732 5731 5729 5728 5726 5725 5723 5722 5720 5718 5716 5715 5713 5711 5709 5707 5706 5703 5702 5700 5697 5695 5693 5691 5689 5686 5684 5682 5679 5677 5674 5672 5669
5765 5764 5764 5763 5762 5762 5761 5760 5760 5759 5758 5758 5757 5756 5756 5755 5754 5753 5752 5752 5751 5749 5748 5747 5746 5745 5744 5742 5741 5740 5738 5737 5736 5734 5733 5732 5731 5729 5728 5726 5725 5723 5721 5720 5718 5716 5714 5712 5711 5709 5707 5705 5703 5701 5699 5697 5695 5693 5690 5688 5686 5683 5681 5679 5676 5674 5671 5669 5666
5763 5763 5762 5761 5761 5760 5759 5759 5758 5757 5757 5756 5756 5755 5754 5754 5753 5752 5751 5750 5749 5748 5747 5746 5745 5743 5742 5741 5739 5738 5737 5736 5734 5733 5732 5730 5729 5727 5726 5724 5723 5721 5719 5717 5716 5714 5712 5710 5708 5707 5705 5702 5701 5698 5697 5694 5692 5690 5688 5686 5683 5681 5678 5676 5673 5671 5668 5666 5663
5762 5761 5760 5760 5759 5758 5758 5757 5757 5756 5756 5755 5754 5754 5753 5752 5752 5751 5750 5749 5748 5747 5745 5744 5743 5742 5741 5739 5738 5737 5735 5734 5733 5732 5730 5729 5727 5726 5724 5722 5721 5719 5717 5715 5714 5712 5710 5708 5706 5704 5702 5700 5698 5696 5694 5692 5690 5687 5685 5683 5681 5678 5676 5673 5671 5668 5666 5663 5660
5760 5759 5758 5758 5757 5757 5756 5756 5755 5755 5754 5754 5753 5752 5752 5751 5750 5749 5748 5747 5746 5745 5744 5742 5741 5740 5739 5738 5737 5735 5734 5732 5731 5730 5728 5727 5725 5724 5722 5720 5719 5717 5715 5713 5711 5710 5708 5706 5704 5702 5700 5698 5696 5693 5692 5689 5687 5685 5682 5680 5678 5675 5673 5670 5668 5665 5662 5660 5657
5758 5757 5757 5756 5756 5755 5755 5754 5754 5753 5753 5752 5752 5751 5750 5749 5748 5747 5747 5745 5744 5743 5742 5741 5740 5739 5737 5736 5735 5734 5732 5731 5730 5728 5727 5725 5723 5722 5720 5718 5717 5715 5713 5711 5709 5707 5705 5703 5702 5700 5697 5695 5693 5691 5689 5687 5685 5682 5680 5677 5675 5672 5670 5667 5665 5662 5659 5657 5654
5757 5756 5755 5755 5754 5754 5753 5753 5752 5752 5751 5751 5750 5749 5748 5747 5747 5746 5745 5744 5743 5742 5741 5739 5738 5737 5736 5735 5733 5732 5731 5729 5728 5726 5725 5723 5722 5720 5718 5716 5715 5713 5711 5709 5707 5705 5703 5701 5699 5697 5695 5693 5691 5689 5687 5684 5682 5680 5677 5675 5672 5670 5667 5664 5662 5659 5656 5653 5651
5755 5754 5753 5753 5752 5752 5752 5751 5751 5750 5750 5749 5748 5748 5747 5746 5745 5744 5743 5742 5741 5740 5739 5738 5737 5736 5734 5733 5732 5730 5729 5727 5726 5725 5723 5721 5720 5718 5716 5714 5712 5711 5709 5707 5705 5703 5701 5699 5697 5695 5693 5690 5688 5686 5684 5682 5679 5677 5674 5672 5669 5667 5664 5661 5658 5656 5653 5650 5647
5753 5752 5752 5752 5751 5751 5750 5750 5749 5749 5748 5747 5747 5746 5745 5744 5743 5742 5742 5741 5739 5738 5737 5736 5735 5734 5732 5731 5730 5729 5727 5726 5724 5723 5721 5719 5718 5716 5714 5712 5711 5709 5707 5705 5703 5701 5699 5697 5694 5692 5690 5688 5686 5683 5681 5679 5676 5674 5672 5669 5666 5664 5661 5658 5655 5652 5649 5647 5643
5751 5751 5750 5750 5749 5749 5749 5748 5747 5747 5747 5746 5745 5744 5744 5743 5742 5741 5740 5739 5738 5737 5736 5735 5733 5732 5731 5730 5728 5727 5725 5724 5722 5721 5719 5717 5716 5714 5712 5710 5708 5707 5704 5702 5700 5698 5696 5694 5692 5690 5687 5685 5683 5681 5678 5676 5673 5671 5668 5666 5663 5660 5657 5655 5652 5649 5646 5643 5640
5750 5749 5749 5748 5748 5747 5747 5747 5746 5746 5745 5744 5743 5743 5742 5741 5740 5739 5738 5737 5736 5735 5734 5733 5732 5730 5729 5728 5727 5725 5723 5722 5721 5719 5717 5716 5714 5712 5710 5708 5706 5704 5702 5700 5698 5696 5694 5692 5689 5687 5685 5682 5680 5678 5676 5673 5671 5668 5665 5662 5660 5657 5654 5651 5649 5646 5643 5640 5637
5748 5747 5747 5747 5746 5746 5745 5745 5744 5744 5743 5742 5742 5741 5740 5739 5739 5738 5737 5736 5735 5733 5732 5731 5730 5729 5727 5726 5725 5723 5722 5720 5718 5717 5715 5714 5712 5710 5708 5706 5704 5702 5700 5697 5695 5693 5691 5689 5687 5684 5682 5680 5677 5675 5673 5670 5667 5665 5662 5659 5657 5654 5651 5648 5645 5642 5639 5636 5633
5746 5746 5746 5745 5745 5744 5744 5743 5743 5742 5742 5741 5740 5740 5739 5738 5737 5736 5735 5734 5733 5732 5731 5729 5728 5727 5726 5724 5723 5721 5720 5718 5717 5715 5713 5712 5710 5708 5706 5704 5702 5700 5697 5695 5693 5691 5688 5686 5684 5682 5679 5677 5675 5672 5670 5667 5665 5662 5659 5656 5653 5651 5648 5645 5642 5639 5636 5632 5629
5745 5744 5744 5743 5743 5743 5742 5742 5741 5741 5740 5739 5739 5738 5737 5736 5735 5734 5733 5732 5731 5730 5729 5728 5726 5725 5724 5722 5721 5719 5717 5716 5714 5713 5711 5709 5707 5706 5704 5702 5700 5698 5695 5693 5691 5688 5686 5683 5681 5679 5677 5674 5672 5669 5667 5664 5662 5659 5656 5653 5651 5648 5645 5642 5639 5636 5632 5629 5625
5743 5742 5742 5742 5742 5741 5740 5740 5739 5739 5738 5737 5737 5736 5735 5734 5733 5732 5732 5731 5729 5728 5727 5726 5725 5723 5722 5720 5719 5717 5716 5714 5712 5711 5709 5707 5705 5704 5702 5700 5698 5696 5693 5691 5688 5686 5683 5681 5679 5676 5674 5671 5669 5667 5664 5661 5659 5656 5653 5651 5648 5645 5642 5639 5636 5632 5629 5625 5621
5741 5741 5740 5740 5740 5739 5739 5738 5738 5737 5737 5736 5735 5734 5733 5733 5732 5731 5730 5729 5728 5727 5725 5724 5723 5721 5720 5718 5717 5715 5713 5712 5710 5708 5707 5705 5703 5702 5700 5697 5696 5693 5691 5689 5686 5684 5681 5679 5676 5674 5671 5669 5666 5664 5661 5658 5656 5653 5650 5647 5645 5642 5639 5636 5632 5629 5625 5622 5618
5739 5739 5739 5738 5738 5737 5737 5737 5736 5735 5735 5734 5733 5732 5732 5731 5730 5729 5728 5727 5726 5725 5723 5722 5721 5719 5718 5717 5715 5713 5712 5710 5708 5706 5705 5703 5701 5699 5697 5695 5693 5691 5689 5687 5684 5681 5679 5676 5674 5671 5669 5666 5663 5661 5658 5655 5652 5650 5647 5644 5642 5638 5635 5632 5628 5625 5622 5618 5615
5737 5737 5737 5737 5736 5736 5735 5735 5734 5733 5733 5732 5732 5731 5730 5729 5728 5727 5726 5725 5724 5723 5722 5720 5719 5717 5716 5714 5713 5711 5710 5708 5706 5704 5702 5700 5698 5697 5695 5693 5691 5689 5686 5684 5682 5679 5676 5673 5671 5669 5666 5663 5661 5658 5655 5652 5650 5647 5644 5641 5638 5635 5632 5628 5625 5622 5618 5615 5611
5736 5736 5735 5735 5734 5734 5733 5733 5732 5732 5731 5731 5730 5729 5728 5727 5727 5725 5724 5723 5722 5721 5720 5718 5717 5716 5714 5712 5711 5709 5707 5706 5704 5702 5700 5698 5696 5694 5692 5690 5688 5686 5684 5682 5679 5676 5674 5671 5668 5666 5663 5661 5658 5655 5652 5649 5647 5644 5641 5638 5635 5632 5628 5625 5622 5618 5615 5611 5608
5734 5734 5733 5733 5732 5732 5732 5731 5731 5730 5729 5729 5728 5727 5727 5726 5725 5723 5722 5721 5720 5719 5718 5716 5715 5713 5712 5710 5709 5707 5705 5703 5701 5699 5697 5696 5694 5692 5690 5688 5686 5684 5681 5679 5677 5674 5671 5668 5666 5663 5660 5658 5655 5652 5649 5646 5643 5641 5638 5635 5632 5628 5625 5621 5618 5615 5611 5608 5604
5732 5732 5732 5731 5731 5730 5730 5729 5729 5728 5728 5727 5726 5726 5725 5724 5723 5722 5721 5719 5718 5717 5716 5714 5713 5711 5710 5708 5706 5705 5703 5701 5699 5697 5695 5693 5691 5689 5687 5685 5683 5681 5679 5677 5674 5672 5669 5666 5663 5660 5657 5655 5652 5649 5646 5643 5641 5637 5634 5631 5628 5625 5621 5618 5614 5611 5607 5604 5601
5731 5730 5730 5729 5729 5728 5728 5727 5727 5727 5726 5725 5724 5724 5723 5722 5721 5720 5718 5717 5716 5715 5714 5712 5711 5709 5707 5706 5704 5702 5700 5698 5697 5695 5693 5691 5689 5687 5685 5683 5681 5678 5676 5674 5672 5669 5666 5663 5660 5657 5654 5652 5649 5646 5643 5640 5637 5634 5631 5628 5625 5621 5618 5614 5611 5607 5604 5601 5597
5729 5728 5728 5727 5727 5727 5726 5726 5725 5725 5724 5723 5722 5722 5721 5720 5719 5717 5717 5715 5714 5713 5712 5710 5709 5707 5705 5703 5702 5700 5698 5696 5694 5692 5690 5688 5686 5684 5682 5680 5678 5676 5673 5671 5669 5667 5664 5661 5657 5654 5651 5649 5646 5643 5640 5637 5634 5631 5628 5625 5621 5618 5614 5611 5607 5604 5600 5597 5593
5727 5726 5726 5726 5725 5725 5724 5724 5723 5723 5722 5722 5721 5720 5719 5718 5717 5716 5714 5713 5712 5711 5709 5708 5707 5705 5703 5701 5699 5697 5696 5694 5692 5690 5688 5686 5684 5682 5679 5677 5675 5673 5671 5668 5666 5664 5661 5658 5655 5652 5649 5646 5643 5640 5637 5634 5631 5628 5625 5622 5618 5615 5611 5608 5604 5600 5597 5593 5590
5725 5724 5724 5724 5723 5723 5722 5722 5722 5721 5720 5719 5719 5718 5717 5716 5715 5713 5712 5711 5710 5709 5707 5706 5704 5702 5701 5699 5697 5695 5693 5691 5689 5687 5685 5683 5681 5679 5677 5675 5672 5670 5668 5666 5663 5661 5658 5656 5652 5649 5646 5643 5641 5637 5635 5632 5628 5625 5622 5619 5615 5612 5608 5604 5601 5597 5593 5589 5586
5723 5722 5722 5722 5721 5721 5721 5720 5719 5719 5718 5717 5717 5716 5715 5714 5712 5712 5710 5709 5708 5707 5705 5703 5702 5700 5698 5696 5695 5693 5691 5689 5687 5685 5683 5681 5678 5676 5674 5672 5670 5667 5665 5663 5660 5658 5655 5653 5650 5647 5644 5641 5638 5635 5632 5629 5626 5622 5619 5616 5612 5609 5605 5601 5597 5594 5590 5586 5582
5721 5721 5720 5720 5719 5719 5718 5718 5717 5717 5716 5715 5714 5713 5712 5712 5711 5709 5708 5707 5706 5704 5703 5701 5699 5698 5696 5694 5692 5691 5689 5687 5685 5682 5680 5678 5676 5673 5671 5669 5667 5665 5662 5660 5657 5655 5652 5650 5647 5644 5641 5638 5635 5632 5629 5626 5623 5620 5617 5613 5610 5606 5602 5598 5594 5590 5587 5583 5579